This demonstration page uses our WeatherBlox Daily Observations layout. Learn more.

Left ArrowRight Arrow

Hourly Observations for November 24, 2018

Temp ( °F °C ) Dew Point ( °F °C ) Humidity (%) Winds ( mph kmh ) Pressure ( in mb ) Visibility ( mi km ) Precip ( " mm )
12:57 am 00:57 Clear 41 5 28 -2.2 60 60 WNW 12 19 29.68 1005 10 16 0.00 0.00
1:57 am 01:57 Clear 35 1.7 27 -2.8 72 72 WNW 12 19 29.69 1005 10 16 0.00 0.00
2:57 am 02:57 Clear 35 1.7 27 -2.8 72 72 NW 10 17 29.69 1005 10 16 0.00 0.00
3:57 am 03:57 Clear 33 0.6 26 -3.3 75 75 NW 10 17 29.68 1005 10 16 0.00 0.00
4:57 am 04:57 Clear 31 -0.6 26 -3.3 82 82 WNW 8 13 29.68 1005 10 16 0.00 0.00
5:57 am 05:57 Clear 31 -0.6 26 -3.3 82 82 NW 6 9 29.67 1005 10 16 0.00 0.00
6:57 am 06:57 Clear 27 -2.8 24 -4.4 89 89 SW 5 7 29.70 1006 10 16 0.00 0.00
7:57 am 07:57 Mostly Cloudy 31 -0.6 26 -3.3 82 82 WSW 8 13 29.70 1006 10 16 0.00 0.00
8:57 am 08:57 Mostly Sunny 34 1.1 30 -1.1 85 85 NW 6 9 29.72 1006 10 16 0.00 0.00
9:57 am 09:57 Cloudy 39 3.9 31 -0.6 73 73 NNE 3 6 29.68 1005 10 16 0.00 0.00
10:57 am 10:57 Partly Cloudy 42 5.6 32 0 68 68 SSW 6 9 29.69 1005 10 16 0.00 0.00
11:57 am 11:57 Mostly Cloudy 42 5.6 33 0.6 71 71 Calm 29.67 1005 10 16 0.00 0.00
12:57 pm 12:57 Cloudy 44 6.7 33 0.6 65 65 NE 3 6 29.63 1003 10 16 0.00 0.00
1:57 pm 13:57 Mostly Sunny 47 8.3 34 1.1 61 61 E 10 17 29.60 1002 10 16 0.00 0.00
2:57 pm 14:57 Mostly Cloudy 48 8.9 33 0.6 56 56 E 13 20 29.58 1002 10 16 0.00 0.00
3:57 pm 15:57 Mostly Cloudy 47 8.3 35 1.7 63 63 E 15 24 29.58 1002 10 16 0.00 0.00
4:57 pm 16:57 Cloudy 44 6.7 34 1.1 68 68 NE 14 22 29.62 1003 10 16 0.00 0.00
5:57 pm 17:57 Cloudy 43 6.1 33 0.6 68 68 ENE 14 22 29.63 1003 10 16 0.00 0.00
6:57 pm 18:57 Cloudy 42 5.6 33 0.6 71 71 NE 12 19 29.66 1004 10 16 0.00 0.00
7:57 pm 19:57 Cloudy 41 5 33 0.6 73 73 NNE 13 20 29.72 1006 10 16 0.00 0.00
8:57 pm 20:57 Cloudy 41 5 34 1.1 76 76 NE 17 28 29.76 1008 10 16 0.00 0.00
9:57 pm 21:57 Cloudy with Light Rain 39 3.9 35 1.7 86 86 NE 20 31 29.76 1008 10 16 0.00 0.03
10:19 pm 22:19 Cloudy with Light Rain 37 3 36 2 93 93 NE 20 31 29.80 1009 10 16 0.00 0.00
10:46 pm 22:46 Windy with Snow Likely 37 3 36 2 93 93 NE 20 31 29.80 1009 10 16 0.05 1.27
10:57 pm 22:57 Windy with Snow Likely 36 2.2 34 1.1 93 93 NE 20 31 29.78 1009 8 13 0.07 1.78
11:18 pm 23:18 Windy with Snow Likely 34 1 32 0 93 93 NNE 21 33 29.85 1011 3 4 0.05 1.27
11:26 pm 23:26 Cloudy with Light Snow 34 1 30 -1 87 87 NNE 16 26 29.85 1011 2 3 0.05 1.27
11:57 pm 23:57 Windy with Snow Likely 32 0 31 -0.6 96 96 NNE 22 35 29.81 1010 2 3 0.07 1.78

Powered by AerisWeather